KD8UGJ Weather Reports


Display with metric or nautical units.
time (UTC)temp
F
wind
direction
speed
MPH
gust
MPH
rain 1hr
in
rain 24hr
in
rain mn
in
humidity
%
barometer
mb
20260504081516 47 360 4.0 10.0 0.00 0.00 0.00 79 1009.0
20260504044546 50 360 9.0 16.0 0.00 0.00 0.00 75 1011.3
20260504043041 50 149 8.0 16.0 0.00 0.00 0.00 75 1011.3
20260504041540 49 360 10.0 15.0 0.00 0.00 0.00 76 1011.4
20260504040051 49 169 7.0 14.0 0.00 0.00 0.00 76 1011.7
20260504034546 49 166 9.0 19.0 0.00 0.00 0.00 76 1011.8
20260504033036 49 360 12.0 17.0 0.00 0.00 0.00 76 1012.0
20260504031536 49 175 10.0 14.0 0.00 0.00 0.00 75 1012.0
20260504030034 49 168 7.0 15.0 0.00 0.00 0.00 76 1012.3
20260504024532 49 157 9.0 14.0 0.00 0.00 0.00 77 1012.4
20260504023031 48 182 7.0 14.0 0.00 0.00 0.00 78 1012.6
20260504021531 48 182 6.0 10.0 0.00 0.00 0.00 79 1012.6
20260504020031 49 160 8.0 11.0 0.00 0.00 0.00 77 1012.7
20260504014530 49 165 6.0 10.0 0.00 0.00 0.00 77 1012.6
20260504013040 50 182 6.0 9.0 0.00 0.00 0.00 76 1012.7
20260504011528 50 360 5.0 10.0 0.00 0.00 0.00 75 1012.7
20260504010027 50 360 3.0 11.0 0.00 0.00 0.00 75 1012.8
20260504004527 51 202 3.0 8.0 0.00 0.00 0.00 74 1012.9
20260504003026 51 360 2.0 10.0 0.00 0.00 0.00 72 1012.9
20260504001525 51 207 2.0 10.0 0.00 0.00 0.00 71 1013.0
20260504000025 52 360 4.0 12.0 0.00 0.00 0.00 71 1013.2
20260503234526 52 239 7.0 17.0 0.00 0.00 0.00 69 1013.3
20260503233023 53 242 7.0 20.0 0.00 0.00 0.00 68 1013.3
20260503231524 54 217 9.0 20.0 0.00 0.00 0.00 68 1013.3
20260503230022 55 241 13.0 24.0 0.00 0.00 0.00 66 1013.2
20260503224522 58 253 16.0 24.0 0.00 0.00 0.00 60 1013.0
20260503223021 59 360 9.0 16.0 0.00 0.00 0.00 49 1012.9
20260503221520 59 360 10.0 17.0 0.00 0.00 0.00 49 1013.0
20260503220020 59 360 7.0 20.0 0.00 0.00 0.00 49 1013.0
20260503214519 60 360 9.0 20.0 0.00 0.00 0.00 48 1013.0
20260503213018 60 246 9.0 19.0 0.00 0.00 0.00 49 1013.2
20260503211523 60 360 8.0 19.0 0.00 0.00 0.00 49 1013.2
20260503210017 60 360 10.0 20.0 0.00 0.00 0.00 47 1013.3
20260503204514 60 360 10.0 20.0 0.00 0.00 0.00 49 1013.4
20260503203014 60 360 12.0 23.0 0.00 0.00 0.00 49 1013.5
20260503201513 60 360 15.0 24.0 0.00 0.00 0.00 47 1013.7
20260503200011 61 223 8.0 20.0 0.00 0.00 0.00 48 1013.8
20260503194510 60 277 8.0 21.0 0.00 0.00 0.00 47 1014.0
20260503193008 61 222 8.0 23.0 0.00 0.00 0.00 48 1014.1
20260503191507 61 221 8.0 23.0 0.00 0.00 0.00 48 1014.4
20260503190020 61 360 8.0 22.0 0.00 0.00 0.00 45 1014.7
20260503184508 61 360 8.0 27.0 0.00 0.00 0.00 47 1014.8
20260503183005 61 245 9.0 18.0 0.00 0.00 0.00 48 1014.8
20260503181501 61 360 7.0 21.0 0.00 0.00 0.00 48 1015.1
20260503180002 61 360 9.0 18.0 0.00 0.00 0.00 48 1015.2
20260503174558 61 360 6.0 22.0 0.00 0.00 0.00 50 1015.3
20260503173112 60 275 6.0 22.0 0.00 0.00 0.00 53 1015.4
20260503171554 60 360 10.0 22.0 0.00 0.00 0.00 51 1015.7